Regional Weather Roundup
Issued by NWS Goodland, KS

Home | Current Version | Previous Version | Text Only | Print | Product List | Glossary On
Versions: 1 2 3 4 5 6 7 8 9 10 11 12 13 14 15 16 17 18 19 20 21 22 23 24 25 26 27 28 29 30 31 32 33 34 35 36 37 38 39 40 41 42 43 44 45 46 47 48 49 50
000
ASUS43 KGLD 301408
RWRGLD

GOODLAND FORECAST AREA HOURLY WEATHER ROUNDUP
NATIONAL WEATHER SERVICE GOODLAND KS
800 AM MDT MON MAR 30 2015

...OFFICIAL OBSERVATIONS...

CITY           SKY/WX    TMP DP  RH WIND       PRES   REMARKS
GOODLAND KS    SUNNY     47  27  45 S12       30.11S
HILL CITY KS   SUNNY     49  25  39 SW12      30.12F
IMPERIAL NEB     N/A     41  25  53 SW3       30.08S
MCCOOK NEB     SUNNY     48  23  37 SW8       30.10S
AKRON CO       SUNNY     45  25  45 W14       30.12R
BURLINGTON CO  SUNNY     45  27  49 SW12      30.11S
LIMON CO       SUNNY     40  26  57 N3        30.16R
$$

...UNOFFICIAL OBSERVATIONS...

CITY           SKY/WX    TMP DP  RH WIND       PRES   REMARKS
COLBY KS       SUNNY     52  30  43 S16G25    30.11F
GOVE KS          N/A     48  32  54 MISG        N/A
LENORA KS        N/A     50  32  50 MISG        N/A
SHARON SPRINGS   N/A     44  30  58 S12         N/A
TRIBUNE KS     SUNNY     50  36  57 S12       30.14S
KIT CARSON CO    N/A     41  29  62 MISG        N/A
YUMA CO          N/A     45  26  47 W14         N/A
$$


USA.gov is the U.S. government's official web portal to all federal, state and local government web resources and services.